Find Gonets-D1 No. 15L

NORAD ID: 23789 Int'l Des: 1996-009 Owner: GONETS Country: RU operational
LEOCIRCULARPOLAR

Current View

Loading 3D Globe...

About Gonets-D1 No. 15L

Gonets-D1 No. 15L (NORAD 23789) is a satellite launched Feb 19, 1996 by GONETS of RU. It operates in LEO, CIRCULAR, POLAR orbit with a mass of 225.00 kg.

Upcoming Passes

Passes for default location (London). Set your location on the main map for personalized predictions.

Altitude History

Loading altitude history...

Two-Line Element Set

1 23789U 96009C 26194.75672775 .00000007 00000-0 -22469-4 0 9996
2 23789 82.5808 302.8831 0005274 17.7956 342.3319 12.62686446401005
Epoch: Jul 13, 2026 • Age: 18 hours

Current Status

Altitude 1432.1 km
Apogee / Perigee N/A
Velocity 7.14 km/s
Sub-Earth Point -43.34°S, 10.18°E
Launch Date Feb 19, 1996
Age 30.3 years
Type other

Technical Details

Classification Payload
Mass 225.00 kg
Dry Mass 225.00 kg
Total Mass 225.00 kg
Length 1.60 m
Diameter 0.80 m
Span 7.00 m
Shape Cyl + Ant
Manufacturer NPOPMR
Bus Type Strela-3
Phase Status In Orbit
Owner/State GONETS/RU

Most Searched